Weather observations for the past three days for
Rockland, Knox County Regional Airport
Imperial (Metric)
Date Time (edt) Wind (mph) Vis. (mi.) Weather Sky Cond. Temperature (ºF) Relative Humidity Wind Chill (°F) Heat Index (°F) Pressure Precipitation (in)
Air Dwpt 6 hour altimeter (in) sea level (mb) 1 hr 3 hr 6 hr
Max. Min.
03 01:56 Calm 10.00 Mostly Cloudy BKN080 59 59 61 59 100% 30.11 1019.6
03 00:56 SE 3 10.00 A Few Clouds FEW080 60.1 60.1 100% 30.13 1020.2
02 23:56 Calm 10.00 Mostly Cloudy BKN080 59 59 100% 30.14 1020.6
02 22:56 Calm 10.00 Overcast OVC003 60.1 60.1 100% 0 0.0
02 21:56 E 6 9.00 Overcast OVC003 60.1 60.1 100% 30.15 1020.9
02 20:56 E 7 10.00 Overcast OVC005 60.1 60.1 100% 30.16 1021.2
02 19:56 E 5 10.00 Overcast OVC007 61 60.1 64.9 60.1 97% 30.16 1021.4
02 18:56 E 5 10.00 Overcast OVC007 60.1 59 96% 30.18 1022.1
02 17:56 E 8 10.00 Overcast BKN009 OVC070 61 59 93% 30.18 1022.0
02 16:56 E 8 10.00 Overcast OVC070 62.1 59 90% 30.2 1022.6
02 15:56 E 8 10.00 Fair CLR 62.1 57.9 86% 30.21 1023.0
02 14:56 E 10 10.00 Fair CLR 64 57.9 81% 30.21 1023.0
02 13:56 E 10 10.00 Fair CLR 64.9 57.9 66 61 78% 30.21 1022.9
02 12:56 E 9 10.00 Fair CLR 66 57 73% 30.22 1023.3
02 11:56 E 10 10.00 Fair CLR 66 57.9 75% 30.23 1023.7
02 10:56 E 8 10.00 Fair CLR 64.9 57 76% 30.23 1023.7
02 09:56 E 10 10.00 Fair CLR 64.9 57 76% 30.22 1023.4
02 08:56 NE 7 10.00 Fair CLR 63 57 81% 30.21 1023.0
02 07:56 NE 7 10.00 Fair CLR 61 57 61 48 87% 30.22 1023.3
02 06:56 NE 8 10.00 Fair CLR 55.9 55.9 100% 30.2 1022.7
02 05:56 Calm 2.00 Fog/Mist CLR 51.1 51.1 100% 30.21 1022.8
02 04:49 Calm 1.00 Fog/Mist CLR 51.1 51.1 100% 30.2 1022.5
02 03:56 Calm 0.50 Fog VV017 53.1 53.1 100% 30.2 1022.5
02 02:56 Calm 10.00 Partly Cloudy SCT009 57 57 100% 30.18 1021.9
02 01:56 Calm 2.50 Fog/Mist FEW002 54 54 59 51.1 100% 0 0.0
02 00:56 Calm 0.50 Fog BKN002 54 54 100% 30.16 1021.3
01 23:56 Calm 10.00 A Few Clouds FEW002 54 54 100% 30.14 1020.6
01 22:56 N 5 10.00 Fair CLR 55 55 100% 30.14 1020.5
01 21:56 Calm 9.00 Fair CLR 55 55 100% 30.13 1020.4
01 20:56 W 3 10.00 Fair CLR 57 57 100% 30.13 1020.2
01 19:56 Calm 10.00 Fair CLR 59 57.9 70 59 96% 30.12 1019.9
01 18:56 E 5 10.00 Fair CLR 62.1 59 90% 30.12 1019.8
01 17:56 SE 6 10.00 Fair CLR 66 59 78% 30.1 1019.3
01 16:56 SE 8 10.00 Fair CLR 66.9 59 76% 30.09 1018.9
01 15:56 SE 10 10.00 A Few Clouds FEW019 68 57.9 70% 30.09 1019.0
01 14:56 E 9 10.00 Fair CLR 68 57.9 70% 30.1 1019.1
01 13:56 SE 9 3.00 Fair with Haze CLR 69.1 60.1 69.1 62.1 73% 30.09 1018.8
01 12:56 SE 8 10.00 Overcast OVC017 69.1 59 70% 0 0.0
01 11:56 Calm 10.00 Overcast OVC011 66 59 78% 30.09 1018.8
01 10:56 SE 7 8.00 Overcast OVC013 66 60.1 81% 30.09 1018.8
01 09:56 E 6 10.00 A Few Clouds FEW011 64.9 57 76% 30.09 1018.8
01 08:56 NE 6 10.00 Overcast FEW010 OVC017 62.1 57 84% 30.09 1018.9
01 07:56 E 6 10.00 A Few Clouds FEW009 61 57.9 61 48 90% 30.08 1018.7
01 06:56 Calm 10.00 Fair CLR 54 54 100% 30.07 1018.3
01 05:56 Calm 10.00 Fair CLR 51.1 50 96% 30.05 1017.7
01 04:56 Calm 10.00 Fair CLR 48 48 100% 30.06 1017.9
01 03:56 Calm 10.00 Partly Cloudy SCT070 48.9 48.9 100% 30.06 1017.9
01 02:56 Calm 10.00 Fair CLR 48.9 48.9 100% 30.07 1018.3
01 01:56 Calm 10.00 Fair CLR 48.9 48.9 57.9 48 100% 30.07 1018.2
01 00:56 W 3 10.00 Fair CLR 48.9 48.9 100% 30.08 1018.5
31 23:56 Calm 10.00 Fair CLR 52 52 100% 30.08 1018.5
31 22:56 Calm 10.00 Fair CLR 52 51.1 97% 30.08 1018.6
31 21:56 W 3 10.00 Fair CLR 53.1 52 96% 30.08 1018.5
31 20:56 Calm 10.00 Fair CLR 54 51.1 90% 30.08 1018.6
31 19:56 SW 6 10.00 Fair CLR 57.9 51.1 73 57.9 78% 0 0.0
31 18:56 SW 10 10.00 Fair CLR 64 50 60% 30.06 1018.0
31 17:56 Calm 10.00 Fair CLR 66.9 53.1 61% 30.07 1018.4
31 16:56 S 7 10.00 Fair CLR 68 53.1 59% 30.07 1018.1
31 15:56 S 10 10.00 Fair CLR 66.9 55 66% 30.07 1018.1
31 14:56 S 8 10.00 Fair CLR 70 53.1 55% 30.08 1018.5
31 12:56 NW 3 10.00 Fair CLR 71.1 50 47% 30.1 1019.3
31 11:56 Vrbl 7 10.00 Fair CLR 69.1 50 51% 30.11 1019.6
31 10:56 N 7 10.00 Fair CLR 68 52 57% 30.13 1020.2
31 09:56 W 12 10.00 Fair CLR 64.9 54 68% 30.12 1019.9
31 08:56 W 8 10.00 Fair CLR 61 53.1 75% 30.11 1019.6
31 07:56 NW 5 10.00 Fair CLR 57.9 54 57.9 51.1 87% 30.12 1019.9
31 06:56 Calm 10.00 Fair CLR 53.1 53.1 100% 30.1 1019.4
31 05:56 SW 3 10.00 Fair CLR 52 52 100% 30.08 1018.6
31 04:56 Vrbl 3 10.00 Fair CLR 55.9 53.1 90% 30.05 1017.5
31 03:56 NW 6 10.00 Fair CLR 55.9 54 93% 30.05 1017.7
31 02:56 Vrbl 5 10.00 Fair CLR 57 55.9 96% 30.05 1017.4
Date Time (edt) Wind (mph) Vis. (mi.) Weather Sky Cond. Air Dwpt Max. Min. Relative Humidity Wind Chill (°F) Heat Index (°F) altimeter (in) sea level (mb) 1 hr 3 hr 6 hr
6 hour
Temperature (ºF) Pressure Precipitation (in)